[Date Prev][Date Next][Thread Prev][Thread Next] - [Date Index][Thread Index][Author Index]

2 Line ISS Keps 8-3



ISS
1 25544U 98067A   02215.15371528  .00019613  00000-0  26997-3 0    78
2 25544  51.6360 177.1301 0018142  97.1628  85.6403 15.57081560211358


----
Via the sarex mailing list at AMSAT.ORG courtesy of AMSAT-NA.
To unsubscribe, send "unsubscribe sarex" to Majordomo@amsat.org



AMSAT Top AMSAT Home